Location: Unspecified
(48.5670°N, 0.0000°E)
Time: 12:46:07
(UTC+00:00)

Altair - Pass Details

Date: 30 August 2019
Orbit: 1501 x 1683 km, 47.2° (Epoch: 19 September)

Event Time Altitude Azimuth Distance (km) Brightness Sun altitude
Exits shadow 02:04:45 44° 223° (SW) 2,126 7.7 -26.2°
Maximum altitude 02:08:12 68° 158° (SSE) 1,715 7.5 -25.8°
Drops below altitude 10° 02:17:40 10° 79° (ENE) 3,762 10.1 -24.9°
Sets 02:20:42 0° 77° (ENE) 4,724 10.8 -24.6°
